{"data":{"norad_id":59651,"intl_designator":"2024-082W","name":"STARLINK-31277","alt_names":[],"object_type":"PAYLOAD","status":"ACTIVE","operator":null,"country":"US","launch_date":"2024-05-03","launch_site_code":"AFETR","launch_vehicle":null,"mission":null,"orbit_class":"UNKNOWN","rcs_meters":null,"size_class":null,"mass_kg":null,"dimensions":null,"purposes":["comms"],"wikipedia_slug":null,"has_3d_model":false,"image_url":null,"decayed_at":null,"tle_current":{"epoch":"2026-09-21T22:24:19.990944Z","epoch_age_seconds":44410,"freshness":"FRESH","line1":"1 59651U 24082W   26264.93356471 -.00000268  00000+0 -20264-6 0  9997","line2":"2 59651  43.0022 111.6299 0001172 276.6322  83.4396 15.27576205135021","mean_motion":15.27576205,"eccentricity":0.0001172,"inclination_deg":43.0022,"raan_deg":111.6299,"arg_perigee_deg":276.6322,"mean_anomaly_deg":83.4396,"bstar":-2.0264e-7,"rev_number":13502,"period_min":94.266982903154,"perigee_km":482.25632731615,"apogee_km":483.86459200069,"semimajor_km":6861.1974596584,"source":"CELESTRAK","updated_at":"2026-09-22T09:00:49.023258Z"}}}